This is the latest recevied weather packets stored in our database for station/object WI0K. If no packets are shown the sender has not sent any weather packets the latest 10 day(s).
| Time | Temp. | Humidity | Pressure | Rain* | Wind** | Luminosity | Snow |
|---|---|---|---|---|---|---|---|
| 1777331599 | 11.11° C | 50% | 826.7 hPa | 0 mm | - | 225 W/m² | - |
| 1777331359 | 11.11° C | 50% | 826.7 hPa | 0 mm | - | 225 W/m² | - |
| 1777331309 | 11.11° C | 50% | 1012.9 hPa | 0 mm | - | 110 W/m² | - |
| 1777331058 | 11.11° C | 50% | 1012.9 hPa | 0 mm | - | 110 W/m² | - |
| 1777331008 | 11.11° C | 51% | 826.6 hPa | 0 mm | - | 131 W/m² | - |
| 1777330758 | 11.11° C | 51% | 826.6 hPa | 0 mm | - | 131 W/m² | - |
| 1777330693 | 11.11° C | 50% | 826.5 hPa | 0 mm | - | 150 W/m² | - |
| 1777330457 | 11.11° C | 50% | 826.5 hPa | 0 mm | - | 150 W/m² | - |
| 1777330398 | 11.11° C | 50% | 826.5 hPa | 0 mm | - | 135 W/m² | - |
| 1777330156 | 11.11° C | 50% | 826.5 hPa | 0 mm | - | 135 W/m² | - |
| 1777330107 | 11.11° C | 50% | 1012.9 hPa | 0 mm | - | 91 W/m² | - |
| 1777329856 | 11.11° C | 50% | 1012.9 hPa | 0 mm | - | 91 W/m² | - |
| 1777329807 | 11.11° C | 50% | 1012.8 hPa | 0 mm | - | 221 W/m² | - |
| 1777329556 | 11.11° C | 50% | 1012.8 hPa | 0 mm | - | 221 W/m² | - |
| 1777329255 | 11.11° C | 50% | 826.4 hPa | 0 mm | - | 221 W/m² | - |
| 1777328954 | 10.56° C | 50% | 826.5 hPa | 0 mm | - | 134 W/m² | - |
| 1777328654 | 10.56° C | 50% | 1012.6 hPa | 0 mm | - | 144 W/m² | - |
| 1777328353 | 10.56° C | 51% | 826.5 hPa | 0 mm | - | 198 W/m² | - |
| 1777328052 | 10.56° C | 50% | 1012.4 hPa | 0 mm | - | 225 W/m² | - |
| 1777327751 | 11.11° C | 50% | 826.4 hPa | 0 mm | - | 194 W/m² | - |
| 1777327451 | 11.11° C | 50% | 1012.5 hPa | 0 mm | - | 180 W/m² | - |
| 1777327150 | 11.11° C | 50% | 826.5 hPa | 0 mm | - | 220 W/m² | - |
| 1777326850 | 11.11° C | 51% | 1012.5 hPa | 0 mm | - | 541 W/m² | - |
| 1777326549 | 10.56° C | 51% | 1012.6 hPa | 0 mm | - | 869 W/m² | - |
| 1777326248 | 10.56° C | 52% | 826.4 hPa | 0 mm | - | 869 W/m² | - |
* Rain latest hour (hover to see other rain measurements)
** Current wind speed in m/s (hover to see current wind gust speed)